Location: St. Louis
(38.6270°N, 90.1994°W)
Time: 01:04:45
(UTC-05:00)

Tiangong - Visible Passes

Search period start: 26 October 2021 00:00
Search period end: 05 November 2021 00:00
Orbit: 381 x 390 km, 41.5° (Epoch: 25 October)

Date Brightness Start Highest point End Pass type
(mag) Time Alt. Az. Time Alt. Az. Time Alt. Az.
26 Oct 1.1 19:07:48 10° WNW 19:11:00 67° NNE 19:12:35 26° E visible
27 Oct 1.6 19:45:09 10° WNW 19:48:16 52° SSW 19:48:16 52° SSW visible
28 Oct 1.1 18:45:32 10° WNW 18:48:45 84° SSW 18:51:46 11° ESE visible
28 Oct 4.1 20:23:03 10° WSW 20:24:01 14° WSW 20:24:01 14° WSW visible
29 Oct 2.7 19:22:58 10° W 19:25:50 30° SSW 19:27:38 17° SSE visible
31 Oct 3.8 19:00:56 10° WSW 19:03:09 17° SSW 19:05:20 10° S visible
